Regional Weather Roundup
Issued by NWS

Home | Current Version | Previous Version | Graphics & Text | Print | Product List | Glossary On
Versions: 1 2 3 4 5 6 7 8 9 10 11 12 13 14 15 16 17 18 19 20 21 22 23 24 25 26 27 28 29 30 31 32 33 34 35 36 37 38 39 40 41 42 43 44 45 46 47 48 49 50
000
ASUS43 KLOT 192300
RWRIL

ILLINOIS REGIONAL WEATHER ROUNDUP
NATIONAL WEATHER SERVICE CHICAGO/ROMEOVILLE IL
600 PM CDT FRI SEP 19 2014

NOTE: "FAIR" INDICATES FEW OR NO CLOUDS BELOW 12,000 FEET WITH NO
SIGNIFICANT WEATHER AND/OR OBSTRUCTIONS TO VISIBILITY.

* THESE STATIONS ARE NOT UNDER NWS QUALITY CONTROL. THEY ALSO MAY NOT
  REPORT WEATHER SUCH AS PRECIPITATION OR FOG.

ILZ001-002-007-009-015-016-024-200000-
NORTHWEST ILLINOIS

CITY           SKY/WX    TMP DP  RH WIND       PRES   REMARKS
MOLINE         MOSUNNY   74  54  49 S8        29.96S
STERLING*      MOSUNNY   73  54  49 SW5       29.98R
$$

ILZ003-004-008-010-011-017-018-200000-
NORTH CENTRAL ILLINOIS

CITY           SKY/WX    TMP DP  RH WIND       PRES   REMARKS
ROCKFORD       PTSUNNY   72  49  44 S13       29.99S
FREEPORT*      MOSUNNY   73  57  57 S10G17    29.98F
$$

ILZ005-006-012>014-019>023-200000-
NORTHEAST ILLINOIS

CITY           SKY/WX    TMP DP  RH WIND       PRES   REMARKS
CHICAGO-OHARE  MOCLDY    77  44  30 S16       30.00F
CHICAGO-MIDWAY MOCLDY    75  45  34 S15       30.00F
AURORA         CLEAR     72  44  36 S10       30.01R
LANSING*       CLEAR     70  48  44 S8        30.02F
WAUKEGAN       PTCLDY    69  45  41 S12       29.98S
DUPAGE AIRPORT CLEAR     70  46  42 S14       30.00S
WHEELING       CLEAR     73  44  35 S17G23    30.01F
NORTHERLY ISL    N/A     72  46  39 S12         N/A
$$

LMZ740>746-200000-
SOUTHERN LAKE MICHIGAN

STATION/POSITION SKY/WX   TEMP    WIND        PRES    VSBY  WAVE
                          AIR SEA DIR/SP/G                  HT/PER
                          (F)     (DEG/KT/KT) (MB)    (MI)  (FT/S)
SOUTHERN BUOY              65 65  160/ 14/ 16 1016.4F         3/ 5
WAUKEGAN HARBOR            70     200/ 16/ 20   N/A
HARRISON CRIB              71     180/ 23/ 26   N/A
BURNHAM HARBOR             72     160/ 13/ 18   N/A
CALUMET HARBOR             73     160/ 10/ 15 1015.2F
MICHIGAN CITY              71     130/ 12/ 17   N/A
MICHIGAN CITY 6N           69 65  170/  8/ 10   N/A           1/ 2
ST. JOSEPH                 69 66  140/ 12/ 16   N/A           2/ 3
$$

ILZ025>027-034>036-040-047-049-050-058-095>099-200000-
WEST-CENTRAL ILLINOIS

CITY           SKY/WX    TMP DP  RH WIND       PRES   REMARKS
QUINCY         SUNNY     74  57  55 S10       29.99S
GALESBURG*     SUNNY     74  56  53 S6        29.98S
MACOMB*        SUNNY     74  55  51 S8        30.01S
$$

ILZ028>032-037-038-041>044-048-051>054-059>061-200000-
CENTRAL ILLINOIS

CITY           SKY/WX    TMP DP  RH WIND       PRES   REMARKS
DECATUR        SUNNY     74  51  44 S7        30.04S
PEORIA         SUNNY     75  54  47 S9        30.00S
SPRINGFIELD    SUNNY     76  54  46 S8        30.02R
TAYLORVILLE    NOT AVBL
$$

ILZ033-039-045-046-055>057-062-063-200000-
EAST-CENTRAL ILLINOIS

CITY           SKY/WX    TMP DP  RH WIND       PRES   REMARKS
CHAMPAIGN      CLEAR     73  48  41 SE9       30.04F
MATTOON        CLEAR     72  51  47 S5        30.04S
$$

ILZ079-100>102-200000-
SOUTHWEST ILLINOIS

CITY           SKY/WX    TMP DP  RH WIND       PRES   REMARKS
BELLEVILLE     SUNNY     77  61  58 E5        30.01S
CAHOKIA*       SUNNY     78  58  49 SE8       30.01S
$$

ILZ064>066-069>071-074>076-080>082-084>086-088>090-092>094-200000-
SOUTH-CENTRAL ILLINOIS

CITY           SKY/WX    TMP DP  RH WIND       PRES   REMARKS
CARBONDALE     SUNNY     75  62  64 SE3       30.02S
MARION         MOSUNNY   79  59  50 SE5       30.03F HX  80
MT. VERNON     SUNNY     79  55  44 CALM      30.04S
$$

ILZ067-068-072-073-078-083-087-091-200000-
SOUTHEAST ILLINOIS

CITY           SKY/WX    TMP DP  RH WIND       PRES   REMARKS
LAWRENCEVILLE  CLEAR     75  55  49 E5        30.05S
$$

ABBREVIATIONS USED IN REMARKS
   TC - TEMPERATURE IN CELSIUS
  WCI - WIND CHILL INDEX
   HX - HEAT INDEX
  VSB - VISIBILITY
$$




USA.gov is the U.S. government's official web portal to all federal, state and local government web resources and services.